Location: Starlight Observatory
(38.4029°N, 85.8936°W)
Time: 05:54:35
(UTC-04:00)

Iridium 84 - Visible Passes

Search period start: 01 May 2016 00:00
Search period end: 11 May 2016 00:00
Orbit: 776 x 779 km, 86.4° (Epoch: 30 April)

Date Brightness Start Highest point End Pass type
(mag) Time Alt. Az. Time Alt. Az. Time Alt. Az.
01 May 5.5 21:44:33 10° S 21:49:44 71° E 21:54:56 10° N visible
01 May 8.3 23:29:00 10° W 23:30:58 12° WNW 23:32:58 10° NW visible
02 May 6.1 21:11:34 10° SSE 21:16:19 37° E 21:21:05 10° NNE visible
02 May 7.7 22:53:04 10° SW 22:57:07 23° WNW 23:01:12 10° NNW visible
03 May 6.7 22:18:29 10° SSW 22:23:24 42° W 22:28:20 10° NNW visible
04 May 5.7 21:44:36 10° S 21:49:48 79° W 21:55:02 10° N visible
05 May 5.7 21:11:16 10° SSE 21:16:19 55° E 21:21:25 10° NNE visible
05 May 8.2 22:54:19 10° WSW 22:57:24 16° WNW 23:00:29 10° NW visible
06 May 7.5 22:19:07 10° SW 22:23:35 29° W 22:28:06 10° NNW visible
07 May 6.3 21:44:50 10° SSW 21:49:55 54° W 21:55:02 10° N visible
08 May 5.5 21:11:10 10° S 21:16:22 81° E 21:21:36 10° N visible
08 May 8.7 22:56:54 10° W 22:57:43 10° WNW 22:58:33 10° WNW visible
09 May 8.1 22:20:04 10° SW 22:23:50 20° WNW 22:27:37 10° NNW visible
10 May 7.1 21:45:18 10° SSW 21:50:05 37° W 21:54:54 10° NNW visible
